Location: Hope
(40.9110°N, 74.9680°W)
Time: 00:25:10
(UTC-04:00)

Envisat - Pass Details

Date: 28 January 2019
Orbit: 764 x 766 km, 98.2° (Epoch: 18 April)

Event Time Altitude Azimuth Distance (km) Brightness Sun altitude
Rises 18:04:01 0° 145° (SE) 3,217 6.0 -10.1°
Reaches altitude 10° 18:06:26 10° 138° (SE) 2,295 5.2 -10.5°
Maximum altitude 18:11:08 40° 70° (ENE) 1,116 3.4 -11.4°
Drops below altitude 10° 18:15:51 10° 2° (N) 2,311 5.3 -12.3°
Sets 18:18:16 0° 355° (N) 3,242 6.2 -12.7°
